IBE04AC LEBB-LEMD

Flight info

Callsign IBE04AC
Flight time 0h 46m
Altitude 33000
Route AMTOS L14 NEA N864 NONTU
Aircraft A20N/M-SDE2E3FGHIRWXY/LB1

Departure

Time 2026-05-05 19:40
Airport Bilbao Airport (LEBB)

Arrival

Time 2026-05-05 20:27
Airport Adolfo Suárez Madrid–Barajas Airport (LEMD)
Time Latitude Longitude Altitude Speed Heading
2026-05-05 19:21 43.30481 -2.90810 131 ft 0 kts 26°
2026-05-05 19:30 43.30472 -2.90816 131 ft 2 kts 26°
2026-05-05 19:30 43.30457 -2.90825 131 ft 2 kts 26°
2026-05-05 19:30 43.30443 -2.90835 131 ft 2 kts 26°
2026-05-05 19:30 43.30428 -2.90847 131 ft 2 kts 28°
2026-05-05 19:31 43.30413 -2.90857 131 ft 2 kts 39°
2026-05-05 19:31 43.30405 -2.90876 131 ft 2 kts 85°
2026-05-05 19:31 43.30405 -2.90899 131 ft 2 kts 89°
2026-05-05 19:31 43.30405 -2.90911 131 ft 1 kts 87°
2026-05-05 19:32 43.30404 -2.90917 131 ft 0 kts 86°
2026-05-05 19:33 43.30404 -2.90916 131 ft 1 kts 86°
2026-05-05 19:34 43.30406 -2.90882 131 ft 7 kts 86°
2026-05-05 19:34 43.30402 -2.90784 131 ft 14 kts 104°
2026-05-05 19:34 43.30351 -2.90644 126 ft 13 kts 118°
2026-05-05 19:35 43.30225 -2.90531 122 ft 6 kts 181°
2026-05-05 19:35 43.30161 -2.90564 122 ft 13 kts 205°
2026-05-05 19:35 43.30103 -2.90530 123 ft 0 kts 111°
2026-05-05 19:35 43.30090 -2.90498 122 ft 8 kts 118°
2026-05-05 19:36 43.30050 -2.90393 121 ft 16 kts 116°
2026-05-05 19:36 43.29987 -2.90222 120 ft 24 kts 117°
2026-05-05 19:36 43.29904 -2.89998 122 ft 30 kts 117°
2026-05-05 19:36 43.29803 -2.89725 121 ft 34 kts 116°
2026-05-05 19:37 43.29729 -2.89592 122 ft 12 kts 171°
2026-05-05 19:37 43.29667 -2.89664 121 ft 13 kts 235°
2026-05-05 19:37 43.29655 -2.89787 122 ft 14 kts 282°
2026-05-05 19:37 43.29684 -2.89896 122 ft 0 kts 298°
2026-05-05 19:39 43.29686 -2.89901 122 ft 4 kts 298°
2026-05-05 19:39 43.29806 -2.90229 123 ft 75 kts 296°
2026-05-05 19:39 43.30135 -2.91132 124 ft 133 kts 296°
2026-05-05 19:40 43.30557 -2.92280 585 ft 137 kts 295°
2026-05-05 19:40 43.30977 -2.93433 1258 ft 135 kts 296°
2026-05-05 19:40 43.31395 -2.94574 1961 ft 133 kts 296°
2026-05-05 19:40 43.31836 -2.95767 2437 ft 149 kts 296°
2026-05-05 19:41 43.32331 -2.97099 2938 ft 166 kts 301°
2026-05-05 19:41 43.33221 -2.98239 3455 ft 188 kts 324°
2026-05-05 19:41 43.34373 -2.99296 4016 ft 212 kts 323°
2026-05-05 19:41 43.35586 -3.00620 4759 ft 233 kts 317°
2026-05-05 19:42 43.36804 -3.02235 5529 ft 250 kts 313°
2026-05-05 19:42 43.38004 -3.04018 6629 ft 254 kts 311°
2026-05-05 19:42 43.39196 -3.05869 7682 ft 260 kts 311°
2026-05-05 19:42 43.40472 -3.07638 8728 ft 266 kts 323°
2026-05-05 19:43 43.42146 -3.08704 9784 ft 273 kts 346°
2026-05-05 19:43 43.44081 -3.08739 10609 ft 290 kts
2026-05-05 19:43 43.45988 -3.07639 11040 ft 319 kts 32°
2026-05-05 19:43 43.47625 -3.05285 11564 ft 344 kts 57°
2026-05-05 19:44 43.48474 -3.02216 12432 ft 354 kts 79°
2026-05-05 19:44 43.48460 -2.98763 13352 ft 363 kts 101°
2026-05-05 19:44 43.47554 -2.95528 14217 ft 368 kts 122°
2026-05-05 19:44 43.45873 -2.92900 15052 ft 371 kts 143°
2026-05-05 19:45 43.43609 -2.91185 15832 ft 373 kts 163°
2026-05-05 19:45 43.41048 -2.90624 16652 ft 373 kts 184°
2026-05-05 19:45 43.38500 -2.91236 17454 ft 373 kts 199°
2026-05-05 19:45 43.36015 -2.92190 18222 ft 380 kts 194°
2026-05-05 19:46 43.33410 -2.92671 18949 ft 385 kts 189°
2026-05-05 19:46 43.30766 -2.93359 19677 ft 385 kts 199°
2026-05-05 19:46 43.28299 -2.94733 20386 ft 384 kts 213°
2026-05-05 19:46 43.26077 -2.96813 21081 ft 386 kts 218°
2026-05-05 19:47 43.23891 -2.98951 21801 ft 389 kts 218°
2026-05-05 19:47 43.21703 -3.01082 22510 ft 392 kts 218°
2026-05-05 19:47 43.19471 -3.03252 23207 ft 396 kts 218°
2026-05-05 19:47 43.17195 -3.05464 23868 ft 399 kts 218°
2026-05-05 19:48 43.14943 -3.07649 24444 ft 402 kts 218°
2026-05-05 19:48 43.12645 -3.09875 25031 ft 404 kts 218°
2026-05-05 19:48 43.10337 -3.12112 25584 ft 407 kts 218°
2026-05-05 19:48 43.08003 -3.14371 26153 ft 410 kts 218°
2026-05-05 19:49 43.05700 -3.16601 26685 ft 413 kts 218°
2026-05-05 19:49 43.04095 -3.18152 27039 ft 414 kts 218°
2026-05-05 19:49 43.00959 -3.21182 27704 ft 418 kts 218°
2026-05-05 19:49 42.98578 -3.23470 28191 ft 421 kts 218°
2026-05-05 19:50 42.96146 -3.25738 28672 ft 424 kts 217°
2026-05-05 19:50 42.93674 -3.28015 29157 ft 427 kts 218°
2026-05-05 19:50 42.91245 -3.30253 29587 ft 430 kts 218°
2026-05-05 19:50 42.88744 -3.32560 30022 ft 432 kts 218°
2026-05-05 19:51 42.86266 -3.34848 30398 ft 435 kts 218°
2026-05-05 19:51 42.83738 -3.37185 30752 ft 438 kts 218°
2026-05-05 19:51 42.81207 -3.39524 31111 ft 440 kts 218°
2026-05-05 19:51 42.78682 -3.41855 31533 ft 441 kts 218°
2026-05-05 19:52 42.76147 -3.44193 32036 ft 440 kts 218°
2026-05-05 19:52 42.73617 -3.46524 32500 ft 439 kts 218°
2026-05-05 19:52 42.71083 -3.48857 32893 ft 439 kts 218°
2026-05-05 19:52 42.68545 -3.51191 33029 ft 437 kts 218°
2026-05-05 19:53 42.66032 -3.53499 33039 ft 435 kts 218°
2026-05-05 19:53 42.61017 -3.58101 33033 ft 435 kts 218°
2026-05-05 19:54 42.56037 -3.62663 33029 ft 435 kts 218°
2026-05-05 19:54 42.51002 -3.67264 33027 ft 434 kts 219°
2026-05-05 19:55 42.45981 -3.71844 33021 ft 433 kts 219°
2026-05-05 19:55 42.41006 -3.76373 33008 ft 433 kts 219°
2026-05-05 19:56 42.35995 -3.80925 33013 ft 432 kts 219°
2026-05-05 19:56 42.31033 -3.85424 33031 ft 431 kts 219°
2026-05-05 19:57 42.26040 -3.89943 33023 ft 430 kts 219°
2026-05-05 19:57 42.21072 -3.94431 33030 ft 430 kts 219°
2026-05-05 19:58 42.16095 -3.98918 33030 ft 429 kts 219°
2026-05-05 19:58 42.11107 -4.03407 33032 ft 429 kts 219°
2026-05-05 19:59 42.06160 -4.07800 33032 ft 431 kts 216°
2026-05-05 19:59 42.00561 -4.10860 33034 ft 446 kts 200°
2026-05-05 20:00 41.94338 -4.11881 33036 ft 454 kts 191°
2026-05-05 20:00 41.88034 -4.12579 33035 ft 453 kts 192°
2026-05-05 20:01 41.81762 -4.13295 33040 ft 453 kts 192°
2026-05-05 20:01 41.75483 -4.14009 33043 ft 452 kts 192°
2026-05-05 20:02 41.69192 -4.14723 33045 ft 452 kts 192°
2026-05-05 20:02 41.62923 -4.15433 33043 ft 451 kts 192°
2026-05-05 20:03 41.56708 -4.16134 33043 ft 450 kts 192°
2026-05-05 20:03 41.50457 -4.16839 33040 ft 449 kts 192°
2026-05-05 20:04 41.44259 -4.17537 33041 ft 448 kts 192°
2026-05-05 20:04 41.38041 -4.18238 33040 ft 447 kts 192°
2026-05-05 20:05 41.31861 -4.18932 33035 ft 444 kts 192°
2026-05-05 20:05 41.25722 -4.19620 33018 ft 445 kts 192°
2026-05-05 20:05 41.22636 -4.19869 32785 ft 447 kts 190°
2026-05-05 20:06 41.19525 -4.20034 32521 ft 447 kts 189°
2026-05-05 20:06 41.16402 -4.20189 32249 ft 447 kts 190°
2026-05-05 20:06 41.13305 -4.20354 31657 ft 450 kts 190°
2026-05-05 20:06 41.10157 -4.20535 30737 ft 454 kts 190°
2026-05-05 20:07 41.08063 -4.20660 30056 ft 458 kts 191°
2026-05-05 20:07 41.04863 -4.20852 29240 ft 454 kts 190°
2026-05-05 20:07 41.01745 -4.21034 28765 ft 444 kts 191°
2026-05-05 20:07 40.98703 -4.21212 28185 ft 437 kts 191°
2026-05-05 20:08 40.95670 -4.21394 27575 ft 431 kts 191°
2026-05-05 20:08 40.92692 -4.21576 26961 ft 426 kts 191°
2026-05-05 20:08 40.89749 -4.21756 26352 ft 422 kts 191°
2026-05-05 20:08 40.86808 -4.21936 25738 ft 418 kts 191°
2026-05-05 20:09 40.83939 -4.22111 25130 ft 415 kts 191°
2026-05-05 20:09 40.81041 -4.22288 24540 ft 413 kts 191°
2026-05-05 20:09 40.78152 -4.22465 23886 ft 412 kts 191°
2026-05-05 20:09 40.75319 -4.22638 23205 ft 411 kts 191°
2026-05-05 20:10 40.72502 -4.22812 22641 ft 406 kts 190°
2026-05-05 20:10 40.69734 -4.22982 22076 ft 404 kts 189°
2026-05-05 20:10 40.66896 -4.23157 21477 ft 399 kts 189°
2026-05-05 20:10 40.64119 -4.23327 20871 ft 395 kts 188°
2026-05-05 20:11 40.61395 -4.23494 20271 ft 392 kts 188°
2026-05-05 20:11 40.58671 -4.23660 19672 ft 389 kts 188°
2026-05-05 20:11 40.55953 -4.23827 19031 ft 388 kts 187°
2026-05-05 20:11 40.53282 -4.23730 18486 ft 388 kts 177°
2026-05-05 20:12 40.50617 -4.23019 17838 ft 390 kts 166°
2026-05-05 20:12 40.48097 -4.21794 17251 ft 387 kts 161°
2026-05-05 20:12 40.45598 -4.20488 16654 ft 383 kts 161°
2026-05-05 20:12 40.43118 -4.19208 16055 ft 379 kts 161°
2026-05-05 20:13 40.40692 -4.17964 15483 ft 376 kts 161°
2026-05-05 20:13 40.38245 -4.16712 14896 ft 373 kts 161°
2026-05-05 20:13 40.35926 -4.15305 14318 ft 372 kts 148°
2026-05-05 20:13 40.33999 -4.13025 13682 ft 374 kts 128°
2026-05-05 20:14 40.32792 -4.10109 13301 ft 365 kts 111°
2026-05-05 20:14 40.32053 -4.07009 13101 ft 361 kts 106°
2026-05-05 20:14 40.31388 -4.03801 12762 ft 364 kts 105°
2026-05-05 20:14 40.30707 -4.00656 12395 ft 358 kts 107°
2026-05-05 20:15 40.29991 -3.97570 12047 ft 357 kts 108°
2026-05-05 20:15 40.29234 -3.94459 11815 ft 347 kts 108°
2026-05-05 20:15 40.28504 -3.91531 11617 ft 327 kts 109°
2026-05-05 20:15 40.27808 -3.88768 11308 ft 313 kts 109°
2026-05-05 20:16 40.27165 -3.86226 10753 ft 309 kts 109°
2026-05-05 20:16 40.26510 -3.83636 10401 ft 299 kts 109°
2026-05-05 20:16 40.25841 -3.80995 10098 ft 307 kts 109°
2026-05-05 20:16 40.25168 -3.78341 9784 ft 303 kts 109°
2026-05-05 20:17 40.24517 -3.75774 9473 ft 297 kts 109°
2026-05-05 20:17 40.23862 -3.73197 9174 ft 298 kts 109°
2026-05-05 20:17 40.23205 -3.70613 8873 ft 296 kts 108°
2026-05-05 20:17 40.22569 -3.68111 8586 ft 293 kts 108°
2026-05-05 20:18 40.21919 -3.65560 8274 ft 295 kts 108°
2026-05-05 20:18 40.21272 -3.63023 7985 ft 291 kts 108°
2026-05-05 20:18 40.20638 -3.60540 7692 ft 291 kts 108°
2026-05-05 20:18 40.19998 -3.58033 7392 ft 289 kts 108°
2026-05-05 20:19 40.19365 -3.55556 7139 ft 286 kts 108°
2026-05-05 20:19 40.18744 -3.53129 7053 ft 276 kts 108°
2026-05-05 20:19 40.18143 -3.50785 6711 ft 269 kts 107°
2026-05-05 20:19 40.17563 -3.48468 6235 ft 265 kts 102°
2026-05-05 20:20 40.17540 -3.46142 5945 ft 256 kts 72°
2026-05-05 20:20 40.18370 -3.44094 5656 ft 254 kts 44°
2026-05-05 20:20 40.19644 -3.42531 5317 ft 252 kts 37°
2026-05-05 20:20 40.21018 -3.41157 5021 ft 247 kts 29°
2026-05-05 20:21 40.22535 -3.40122 4777 ft 241 kts 24°
2026-05-05 20:21 40.24025 -3.39123 4327 ft 243 kts 24°
2026-05-05 20:21 40.25599 -3.38463 4078 ft 234 kts
2026-05-05 20:21 40.27191 -3.38585 4027 ft 230 kts 350°
2026-05-05 20:22 40.28796 -3.38893 4022 ft 230 kts 351°
2026-05-05 20:22 40.30327 -3.39373 4021 ft 232 kts 335°
2026-05-05 20:22 40.31682 -3.40566 4021 ft 232 kts 322°
2026-05-05 20:22 40.32924 -3.41850 4021 ft 226 kts 322°
2026-05-05 20:23 40.34122 -3.43071 4028 ft 209 kts 323°
2026-05-05 20:23 40.35233 -3.44187 4027 ft 197 kts 325°
2026-05-05 20:23 40.36358 -3.45278 4026 ft 202 kts 323°
2026-05-05 20:23 40.37427 -3.46367 4041 ft 185 kts 323°
2026-05-05 20:24 40.38453 -3.47403 3991 ft 189 kts 323°
2026-05-05 20:24 40.39492 -3.48458 3738 ft 184 kts 323°
2026-05-05 20:24 40.40445 -3.49426 3491 ft 163 kts 323°
2026-05-05 20:24 40.41281 -3.50276 3277 ft 141 kts 323°
2026-05-05 20:25 40.42034 -3.51040 3093 ft 137 kts 324°
2026-05-05 20:25 40.42778 -3.51793 2882 ft 135 kts 322°
2026-05-05 20:25 40.43522 -3.52551 2693 ft 136 kts 321°
2026-05-05 20:25 40.44286 -3.53329 2502 ft 138 kts 320°
2026-05-05 20:26 40.45034 -3.54088 2321 ft 137 kts 320°
2026-05-05 20:26 40.45778 -3.54849 2138 ft 133 kts 321°
2026-05-05 20:26 40.46499 -3.55578 1982 ft 127 kts 321°
2026-05-05 20:26 40.47055 -3.56149 1981 ft 73 kts 322°
2026-05-05 20:27 40.47333 -3.56437 1980 ft 42 kts 323°
2026-05-05 20:27 40.47518 -3.56694 1982 ft 36 kts 295°
2026-05-05 20:27 40.47610 -3.56935 1981 ft 26 kts 296°
2026-05-05 20:27 40.47652 -3.57064 1980 ft 1 kts 252°
2026-05-05 20:28 40.47644 -3.57079 1982 ft 4 kts 236°
2026-05-05 20:28 40.47638 -3.57121 1981 ft 5 kts 289°
2026-05-05 20:28 40.47669 -3.57163 1980 ft 8 kts 317°
2026-05-05 20:28 40.47721 -3.57212 1982 ft 11 kts 324°
2026-05-05 20:29 40.47786 -3.57278 1980 ft 13 kts 322°
2026-05-05 20:29 40.47866 -3.57361 1980 ft 16 kts 322°
2026-05-05 20:29 40.47956 -3.57453 1980 ft 18 kts 322°
2026-05-05 20:29 40.48059 -3.57559 1980 ft 20 kts 321°
2026-05-05 20:30 40.48170 -3.57675 1980 ft 21 kts 322°
2026-05-05 20:30 40.48292 -3.57793 1982 ft 22 kts 323°
2026-05-05 20:30 40.48423 -3.57916 1982 ft 24 kts 327°
2026-05-05 20:30 40.48513 -3.58038 1981 ft 13 kts 276°
2026-05-05 20:31 40.48513 -3.58168 1980 ft 15 kts 270°
2026-05-05 20:31 40.48513 -3.58322 1980 ft 18 kts 270°
2026-05-05 20:31 40.48513 -3.58491 1980 ft 20 kts 270°
2026-05-05 20:31 40.48514 -3.58676 1980 ft 21 kts 271°
2026-05-05 20:32 40.48511 -3.58866 1980 ft 17 kts 269°
2026-05-05 20:32 40.48511 -3.59026 1983 ft 18 kts 270°
2026-05-05 20:32 40.48513 -3.59203 1980 ft 20 kts 275°
2026-05-05 20:32 40.48591 -3.59252 1980 ft 11 kts 13°
2026-05-05 20:33 40.48638 -3.59226 1981 ft 3 kts 53°
2026-05-05 20:33 40.48639 -3.59192 1980 ft 5 kts 92°
2026-05-05 20:33 40.48639 -3.59182 1980 ft 0 kts 89°